1599861647,2020-09-12 00:00,448.00,-27
1599861707,2020-09-12 00:01,444.00,-28
1599861767,2020-09-12 00:02,445.00,-28
1599861827,2020-09-12 00:03,444.00,-27
1599861887,2020-09-12 00:04,446.00,-27
1599861947,2020-09-12 00:05,446.00,-28
1599862008,2020-09-12 00:06,447.00,-28
1599862068,2020-09-12 00:07,448.00,-28
1599862128,2020-09-12 00:08,445.00,-27
1599862188,2020-09-12 00:09,449.00,-29
1599862248,2020-09-12 00:10,447.00,-31
1599862308,2020-09-12 00:11,443.00,-28
1599862368,2020-09-12 00:12,445.00,-28
1599862428,2020-09-12 00:13,444.00,-28
1599862488,2020-09-12 00:14,445.00,-29
1599862548,2020-09-12 00:15,443.00,-27
1599862609,2020-09-12 00:16,443.00,-27
1599862669,2020-09-12 00:17,441.00,-28
1599862729,2020-09-12 00:18,439.00,-29
1599862789,2020-09-12 00:19,440.00,-29
1599862849,2020-09-12 00:20,442.00,-28
1599862909,2020-09-12 00:21,448.00,-31
1599862969,2020-09-12 00:22,451.00,-28
1599863029,2020-09-12 00:23,449.00,-27
1599863089,2020-09-12 00:24,446.00,-28
1599863149,2020-09-12 00:25,446.00,-28
1599863209,2020-09-12 00:26,444.00,-27
1599863269,2020-09-12 00:27,441.00,-27
1599863329,2020-09-12 00:28,441.00,-30
1599863389,2020-09-12 00:29,443.00,-27
1599863449,2020-09-12 00:30,440.00,-27
1599863510,2020-09-12 00:31,445.00,-30
1599863570,2020-09-12 00:32,443.00,-28
1599863630,2020-09-12 00:33,444.00,-28
1599863690,2020-09-12 00:34,441.00,-28
1599863750,2020-09-12 00:35,442.00,-28
1599863810,2020-09-12 00:36,442.00,-29
1599863870,2020-09-12 00:37,441.00,-27
1599863930,2020-09-12 00:38,441.00,-28
1599863990,2020-09-12 00:39,441.00,-28
1599864050,2020-09-12 00:40,445.00,-28
1599864110,2020-09-12 00:41,445.00,-29
1599864170,2020-09-12 00:42,439.00,-30
1599864230,2020-09-12 00:43,441.00,-29
1599864290,2020-09-12 00:44,441.00,-28
1599864351,2020-09-12 00:45,443.00,-27
1599864411,2020-09-12 00:46,443.00,-28
1599864471,2020-09-12 00:47,442.00,-29
1599864531,2020-09-12 00:48,439.00,-28
1599864591,2020-09-12 00:49,441.00,-28
1599864651,2020-09-12 00:50,441.00,-28
1599864711,2020-09-12 00:51,440.00,-29
1599864771,2020-09-12 00:52,440.00,-30
1599864831,2020-09-12 00:53,443.00,-28
1599864891,2020-09-12 00:54,442.00,-28
1599864951,2020-09-12 00:55,439.00,-28
1599865011,2020-09-12 00:56,443.00,-27
1599865071,2020-09-12 00:57,441.00,-27
1599865132,2020-09-12 00:58,445.00,-28
1599865192,2020-09-12 00:59,447.00,-29
1599865252,2020-09-12 01:00,445.00,-28
1599865312,2020-09-12 01:01,445.00,-28
1599865372,2020-09-12 01:02,443.00,-28
1599865432,2020-09-12 01:03,449.00,-33
1599865492,2020-09-12 01:04,445.00,-28
1599865552,2020-09-12 01:05,438.00,-28
1599865612,2020-09-12 01:06,442.00,-27
1599865672,2020-09-12 01:07,440.00,-29
1599865732,2020-09-12 01:08,442.00,-27
1599865793,2020-09-12 01:09,439.00,-27
1599865853,2020-09-12 01:10,443.00,-28
1599865913,2020-09-12 01:11,446.00,-27
1599865973,2020-09-12 01:12,440.00,-28
1599866033,2020-09-12 01:13,440.00,-28
1599866093,2020-09-12 01:14,444.00,-27
1599866153,2020-09-12 01:15,443.00,-27
1599866213,2020-09-12 01:16,445.00,-27
1599866273,2020-09-12 01:17,447.00,-28
1599866333,2020-09-12 01:18,447.00,-27
1599866393,2020-09-12 01:19,445.00,-27
1599866453,2020-09-12 01:20,448.00,-30
1599866513,2020-09-12 01:21,444.00,-28
1599866574,2020-09-12 01:22,444.00,-28
1599866634,2020-09-12 01:23,444.00,-29
1599866694,2020-09-12 01:24,443.00,-33
1599866754,2020-09-12 01:25,441.00,-29
1599866814,2020-09-12 01:26,446.00,-28
1599866874,2020-09-12 01:27,446.00,-28
1599866934,2020-09-12 01:28,449.00,-28
1599866994,2020-09-12 01:29,453.00,-29
1599867054,2020-09-12 01:30,446.00,-31
1599867114,2020-09-12 01:31,444.00,-28
1599867174,2020-09-12 01:32,447.00,-28
1599867234,2020-09-12 01:33,443.00,-28
1599867295,2020-09-12 01:34,444.00,-30
1599867355,2020-09-12 01:35,442.00,-29
1599867415,2020-09-12 01:36,446.00,-28
1599867475,2020-09-12 01:37,446.00,-28
1599867535,2020-09-12 01:38,448.00,-28
1599867595,2020-09-12 01:39,448.00,-28
1599867655,2020-09-12 01:40,445.00,-28
1599867715,2020-09-12 01:41,447.00,-28
1599867776,2020-09-12 01:42,444.00,-28
1599867836,2020-09-12 01:43,447.00,-31
1599867896,2020-09-12 01:44,446.00,-28
1599867956,2020-09-12 01:45,446.00,-29
1599868016,2020-09-12 01:46,443.00,-29
1599868076,2020-09-12 01:47,448.00,-28
1599868136,2020-09-12 01:48,443.00,-28
1599868196,2020-09-12 01:49,446.00,-28
1599868257,2020-09-12 01:50,447.00,-28
1599868317,2020-09-12 01:51,445.00,-31
1599868377,2020-09-12 01:52,449.00,-29
1599868437,2020-09-12 01:53,448.00,-29
1599868497,2020-09-12 01:54,450.00,-27
1599868557,2020-09-12 01:55,446.00,-28
1599868617,2020-09-12 01:56,447.00,-28
1599868677,2020-09-12 01:57,447.00,-29
1599868738,2020-09-12 01:58,443.00,-28
1599868798,2020-09-12 01:59,444.00,-30
1599868858,2020-09-12 02:00,446.00,-29
1599868918,2020-09-12 02:01,444.00,-29
1599868978,2020-09-12 02:02,445.00,-30
1599869038,2020-09-12 02:03,442.00,-28
1599869098,2020-09-12 02:04,443.00,-28
1599869158,2020-09-12 02:05,444.00,-27
1599869218,2020-09-12 02:06,445.00,-28
1599869278,2020-09-12 02:07,446.00,-29
1599869338,2020-09-12 02:08,444.00,-28
1599869398,2020-09-12 02:09,445.00,-29
1599869458,2020-09-12 02:10,444.00,-27
1599869519,2020-09-12 02:11,445.00,-29
1599869579,2020-09-12 02:12,441.00,-28
1599869639,2020-09-12 02:13,445.00,-29
1599869699,2020-09-12 02:14,442.00,-28
1599869759,2020-09-12 02:15,446.00,-29
1599869819,2020-09-12 02:16,444.00,-27
1599869879,2020-09-12 02:17,446.00,-27
1599869939,2020-09-12 02:18,445.00,-31
1599869999,2020-09-12 02:19,446.00,-28
1599870059,2020-09-12 02:20,444.00,-28
1599870120,2020-09-12 02:22,444.00,-28
1599870180,2020-09-12 02:23,447.00,-28
1599870240,2020-09-12 02:24,446.00,-29
1599870300,2020-09-12 02:25,445.00,-28
1599870360,2020-09-12 02:26,445.00,-27
1599870420,2020-09-12 02:27,444.00,-27
1599870480,2020-09-12 02:28,443.00,-29
1599870540,2020-09-12 02:29,444.00,-27
1599870600,2020-09-12 02:30,446.00,-27
1599870660,2020-09-12 02:31,445.00,-29
1599870720,2020-09-12 02:32,444.00,-27
1599870781,2020-09-12 02:33,444.00,-30
1599870841,2020-09-12 02:34,443.00,-27
1599870901,2020-09-12 02:35,444.00,-32
1599870961,2020-09-12 02:36,442.00,-29
1599871021,2020-09-12 02:37,443.00,-30
1599871081,2020-09-12 02:38,442.00,-28
1599871141,2020-09-12 02:39,446.00,-27
1599871201,2020-09-12 02:40,445.00,-28
1599871261,2020-09-12 02:41,444.00,-28
1599871321,2020-09-12 02:42,445.00,-27
1599871381,2020-09-12 02:43,448.00,-28
1599871441,2020-09-12 02:44,443.00,-28
1599871501,2020-09-12 02:45,443.00,-28
1599871561,2020-09-12 02:46,443.00,-28
1599871621,2020-09-12 02:47,443.00,-31
1599871681,2020-09-12 02:48,445.00,-27
1599871741,2020-09-12 02:49,445.00,-28
1599871801,2020-09-12 02:50,445.00,-29
1599871861,2020-09-12 02:51,446.00,-29
1599871922,2020-09-12 02:52,447.00,-27
1599871982,2020-09-12 02:53,447.00,-28
1599872042,2020-09-12 02:54,442.00,-28
1599872102,2020-09-12 02:55,447.00,-28
1599872162,2020-09-12 02:56,447.00,-28
1599872222,2020-09-12 02:57,447.00,-29
1599872282,2020-09-12 02:58,446.00,-28
1599872342,2020-09-12 02:59,448.00,-29
1599872402,2020-09-12 03:00,447.00,-30
1599872462,2020-09-12 03:01,446.00,-27
1599872522,2020-09-12 03:02,447.00,-27
1599872582,2020-09-12 03:03,447.00,-29
1599872642,2020-09-12 03:04,450.00,-27
1599872703,2020-09-12 03:05,451.00,-28
1599872763,2020-09-12 03:06,451.00,-27
1599872823,2020-09-12 03:07,451.00,-29
1599872883,2020-09-12 03:08,446.00,-27
1599872943,2020-09-12 03:09,450.00,-28
1599873004,2020-09-12 03:10,449.00,-28
1599873064,2020-09-12 03:11,447.00,-28
1599873124,2020-09-12 03:12,446.00,-28
1599873184,2020-09-12 03:13,446.00,-29
1599873244,2020-09-12 03:14,446.00,-27
1599873304,2020-09-12 03:15,448.00,-27
1599873364,2020-09-12 03:16,448.00,-28
1599873425,2020-09-12 03:17,449.00,-28
1599873485,2020-09-12 03:18,448.00,-29
1599873545,2020-09-12 03:19,448.00,-28
1599873605,2020-09-12 03:20,450.00,-27
1599873665,2020-09-12 03:21,447.00,-28
1599873725,2020-09-12 03:22,449.00,-27
1599873785,2020-09-12 03:23,451.00,-28
1599873845,2020-09-12 03:24,452.00,-30
1599873905,2020-09-12 03:25,449.00,-27
1599873965,2020-09-12 03:26,445.00,-27
1599874025,2020-09-12 03:27,447.00,-28
1599874085,2020-09-12 03:28,449.00,-30
1599874145,2020-09-12 03:29,448.00,-28
1599874205,2020-09-12 03:30,452.00,-29
1599874265,2020-09-12 03:31,451.00,-27
1599874325,2020-09-12 03:32,450.00,-29
1599874385,2020-09-12 03:33,448.00,-28
1599874446,2020-09-12 03:34,451.00,-27
1599874506,2020-09-12 03:35,450.00,-27
1599874566,2020-09-12 03:36,450.00,-30
1599874626,2020-09-12 03:37,448.00,-29
1599874686,2020-09-12 03:38,450.00,-27
1599874746,2020-09-12 03:39,451.00,-28
1599874806,2020-09-12 03:40,451.00,-29
1599874866,2020-09-12 03:41,450.00,-27
1599874926,2020-09-12 03:42,452.00,-28
1599874986,2020-09-12 03:43,451.00,-29
1599875046,2020-09-12 03:44,452.00,-28
1599875106,2020-09-12 03:45,458.00,-27
1599875166,2020-09-12 03:46,460.00,-28
1599875226,2020-09-12 03:47,462.00,-27
1599875286,2020-09-12 03:48,460.00,-29
1599875346,2020-09-12 03:49,457.00,-27
1599875406,2020-09-12 03:50,462.00,-28
1599875466,2020-09-12 03:51,458.00,-28
1599875526,2020-09-12 03:52,455.00,-31
1599875587,2020-09-12 03:53,458.00,-31
1599875647,2020-09-12 03:54,457.00,-29
1599875707,2020-09-12 03:55,449.00,-32
1599875767,2020-09-12 03:56,456.00,-30
1599875827,2020-09-12 03:57,454.00,-30
1599875887,2020-09-12 03:58,453.00,-30
1599875947,2020-09-12 03:59,455.00,-30
1599876007,2020-09-12 04:00,458.00,-27
1599876067,2020-09-12 04:01,453.00,-27
1599876127,2020-09-12 04:02,453.00,-27
1599876187,2020-09-12 04:03,454.00,-27
1599876247,2020-09-12 04:04,456.00,-28
1599876307,2020-09-12 04:05,457.00,-27
1599876367,2020-09-12 04:06,457.00,-29
1599876427,2020-09-12 04:07,455.00,-27
1599876487,2020-09-12 04:08,454.00,-28
1599876547,2020-09-12 04:09,456.00,-27
1599876607,2020-09-12 04:10,459.00,-28
1599876667,2020-09-12 04:11,458.00,-28
1599876727,2020-09-12 04:12,459.00,-28
1599876787,2020-09-12 04:13,466.00,-28
1599876847,2020-09-12 04:14,457.00,-27
1599876907,2020-09-12 04:15,463.00,-28
1599876967,2020-09-12 04:16,469.00,-27
1599877027,2020-09-12 04:17,470.00,-28
1599877088,2020-09-12 04:18,464.00,-27
1599877148,2020-09-12 04:19,459.00,-27
1599877208,2020-09-12 04:20,461.00,-30
1599877268,2020-09-12 04:21,462.00,-27
1599877328,2020-09-12 04:22,468.00,-27
1599877388,2020-09-12 04:23,465.00,-31
1599877448,2020-09-12 04:24,467.00,-30
1599877508,2020-09-12 04:25,469.00,-28
1599877568,2020-09-12 04:26,465.00,-28
1599877628,2020-09-12 04:27,465.00,-29
1599877689,2020-09-12 04:28,469.00,-29
1599877749,2020-09-12 04:29,472.00,-28
1599877809,2020-09-12 04:30,476.00,-28
1599877869,2020-09-12 04:31,475.00,-27
1599877929,2020-09-12 04:32,471.00,-28
1599877989,2020-09-12 04:33,469.00,-31
1599878049,2020-09-12 04:34,462.00,-33
1599878109,2020-09-12 04:35,459.00,-33
1599878169,2020-09-12 04:36,463.00,-35
1599878229,2020-09-12 04:37,463.00,-28
1599878289,2020-09-12 04:38,463.00,-27
1599878349,2020-09-12 04:39,466.00,-27
1599878409,2020-09-12 04:40,466.00,-28
1599878469,2020-09-12 04:41,462.00,-29
1599878529,2020-09-12 04:42,458.00,-28
1599878589,2020-09-12 04:43,456.00,-27
1599878649,2020-09-12 04:44,457.00,-27
1599878709,2020-09-12 04:45,456.00,-27
1599878769,2020-09-12 04:46,454.00,-27
1599878829,2020-09-12 04:47,455.00,-28
1599878890,2020-09-12 04:48,455.00,-27
1599878950,2020-09-12 04:49,455.00,-28
1599879010,2020-09-12 04:50,459.00,-31
1599879070,2020-09-12 04:51,458.00,-28
1599879130,2020-09-12 04:52,456.00,-27
1599879190,2020-09-12 04:53,457.00,-28
1599879250,2020-09-12 04:54,455.00,-28
1599879310,2020-09-12 04:55,458.00,-28
1599879370,2020-09-12 04:56,458.00,-28
1599879430,2020-09-12 04:57,457.00,-27
1599879490,2020-09-12 04:58,454.00,-30
1599879550,2020-09-12 04:59,454.00,-28
1599879610,2020-09-12 05:00,457.00,-27
1599879670,2020-09-12 05:01,456.00,-28
1599879730,2020-09-12 05:02,456.00,-27
1599879790,2020-09-12 05:03,456.00,-30
1599879850,2020-09-12 05:04,455.00,-27
1599879910,2020-09-12 05:05,456.00,-27
1599879970,2020-09-12 05:06,453.00,-28
1599880030,2020-09-12 05:07,459.00,-29
1599880090,2020-09-12 05:08,456.00,-28
1599880151,2020-09-12 05:09,457.00,-27
1599880211,2020-09-12 05:10,460.00,-28
1599880271,2020-09-12 05:11,463.00,-28
1599880331,2020-09-12 05:12,464.00,-27
1599880391,2020-09-12 05:13,462.00,-28
1599880451,2020-09-12 05:14,465.00,-27
1599880511,2020-09-12 05:15,464.00,-27
1599880571,2020-09-12 05:16,463.00,-28
1599880631,2020-09-12 05:17,461.00,-27
1599880691,2020-09-12 05:18,466.00,-28
1599880751,2020-09-12 05:19,461.00,-29
1599880811,2020-09-12 05:20,464.00,-27
1599880871,2020-09-12 05:21,461.00,-27
1599880931,2020-09-12 05:22,461.00,-31
1599880991,2020-09-12 05:23,458.00,-28
1599881051,2020-09-12 05:24,461.00,-28
1599881111,2020-09-12 05:25,461.00,-27
1599881171,2020-09-12 05:26,463.00,-27
1599881231,2020-09-12 05:27,465.00,-27
1599881291,2020-09-12 05:28,462.00,-27
1599881352,2020-09-12 05:29,463.00,-27
1599881412,2020-09-12 05:30,470.00,-29
1599881472,2020-09-12 05:31,466.00,-30
1599881532,2020-09-12 05:32,470.00,-28
1599881592,2020-09-12 05:33,465.00,-28
1599881652,2020-09-12 05:34,463.00,-28
1599881712,2020-09-12 05:35,468.00,-28
1599881772,2020-09-12 05:36,465.00,-27
1599881832,2020-09-12 05:37,466.00,-27
1599881892,2020-09-12 05:38,466.00,-29
1599881952,2020-09-12 05:39,463.00,-28
1599882012,2020-09-12 05:40,463.00,-29
1599882072,2020-09-12 05:41,462.00,-27
1599882132,2020-09-12 05:42,463.00,-27
1599882192,2020-09-12 05:43,461.00,-29
1599882252,2020-09-12 05:44,460.00,-27
1599882312,2020-09-12 05:45,457.00,-27
1599882372,2020-09-12 05:46,457.00,-28
1599882433,2020-09-12 05:47,455.00,-27
1599882493,2020-09-12 05:48,456.00,-28
1599882553,2020-09-12 05:49,460.00,-28
1599882613,2020-09-12 05:50,463.00,-28
1599882673,2020-09-12 05:51,460.00,-27
1599882733,2020-09-12 05:52,456.00,-28
1599882793,2020-09-12 05:53,454.00,-29
1599882853,2020-09-12 05:54,455.00,-27
1599882913,2020-09-12 05:55,454.00,-28
1599882973,2020-09-12 05:56,463.00,-28
1599883033,2020-09-12 05:57,459.00,-28
1599883093,2020-09-12 05:58,457.00,-27
1599883153,2020-09-12 05:59,459.00,-28
1599883213,2020-09-12 06:00,459.00,-28
1599883273,2020-09-12 06:01,454.00,-29
1599883333,2020-09-12 06:02,450.00,-29
1599883393,2020-09-12 06:03,460.00,-28
1599883453,2020-09-12 06:04,457.00,-28
1599883513,2020-09-12 06:05,453.00,-28
1599883573,2020-09-12 06:06,457.00,-28
1599883634,2020-09-12 06:07,456.00,-27
1599883694,2020-09-12 06:08,460.00,-27
1599883754,2020-09-12 06:09,458.00,-30
1599883814,2020-09-12 06:10,461.00,-29
1599883874,2020-09-12 06:11,462.00,-28
1599883934,2020-09-12 06:12,463.00,-28
1599883994,2020-09-12 06:13,460.00,-28
1599884054,2020-09-12 06:14,459.00,-29
1599884114,2020-09-12 06:15,458.00,-30
1599884174,2020-09-12 06:16,462.00,-28
1599884234,2020-09-12 06:17,461.00,-27
1599884294,2020-09-12 06:18,459.00,-28
1599884354,2020-09-12 06:19,458.00,-28
1599884414,2020-09-12 06:20,462.00,-27
1599884474,2020-09-12 06:21,458.00,-27
1599884534,2020-09-12 06:22,461.00,-27
1599884594,2020-09-12 06:23,461.00,-29
1599884654,2020-09-12 06:24,462.00,-27
1599884714,2020-09-12 06:25,460.00,-29
1599884774,2020-09-12 06:26,455.00,-28
1599884835,2020-09-12 06:27,453.00,-27
1599884895,2020-09-12 06:28,458.00,-27
1599884955,2020-09-12 06:29,453.00,-28
1599885015,2020-09-12 06:30,453.00,-28
1599885075,2020-09-12 06:31,454.00,-27
1599885135,2020-09-12 06:32,456.00,-27
1599885195,2020-09-12 06:33,452.00,-27
1599885255,2020-09-12 06:34,459.00,-28
1599885316,2020-09-12 06:35,459.00,-27
1599885376,2020-09-12 06:36,460.00,-29
1599885436,2020-09-12 06:37,460.00,-28
1599885496,2020-09-12 06:38,460.00,-27
1599885556,2020-09-12 06:39,457.00,-32
1599885616,2020-09-12 06:40,460.00,-28
1599885677,2020-09-12 06:41,457.00,-27
1599885737,2020-09-12 06:42,461.00,-31
1599885797,2020-09-12 06:43,463.00,-31
1599885857,2020-09-12 06:44,464.00,-29
1599885917,2020-09-12 06:45,462.00,-31
1599885977,2020-09-12 06:46,461.00,-29
1599886037,2020-09-12 06:47,459.00,-29
1599886097,2020-09-12 06:48,457.00,-28
1599886158,2020-09-12 06:49,454.00,-27
1599886218,2020-09-12 06:50,453.00,-28
1599886278,2020-09-12 06:51,462.00,-29
1599886338,2020-09-12 06:52,465.00,-28
1599886398,2020-09-12 06:53,460.00,-28
1599886458,2020-09-12 06:54,454.00,-29
1599886518,2020-09-12 06:55,454.00,-28
1599886578,2020-09-12 06:56,455.00,-29
1599886639,2020-09-12 06:57,455.00,-30
1599886699,2020-09-12 06:58,454.00,-29
1599886759,2020-09-12 06:59,454.00,-28
1599886819,2020-09-12 07:00,456.00,-29
1599886879,2020-09-12 07:01,456.00,-28
1599886939,2020-09-12 07:02,461.00,-28
1599887000,2020-09-12 07:03,458.00,-27
1599887060,2020-09-12 07:04,461.00,-28
1599887121,2020-09-12 07:05,462.00,-28
1599887181,2020-09-12 07:06,450.00,-28
1599887241,2020-09-12 07:07,458.00,-29
1599887301,2020-09-12 07:08,457.00,-27
1599887361,2020-09-12 07:09,459.00,-29
1599887421,2020-09-12 07:10,458.00,-31
1599887482,2020-09-12 07:11,460.00,-29
1599887542,2020-09-12 07:12,457.00,-29
1599887665,2020-09-12 07:14,448.00,-30
1599887726,2020-09-12 07:15,448.00,-28
1599887786,2020-09-12 07:16,451.00,-29
1599887846,2020-09-12 07:17,451.00,-30
1599887906,2020-09-12 07:18,449.00,-29
1599887966,2020-09-12 07:19,451.00,-28
1599888027,2020-09-12 07:20,453.00,-28
1599888087,2020-09-12 07:21,450.00,-30
1599888147,2020-09-12 07:22,452.00,-30
1599888207,2020-09-12 07:23,454.00,-28
1599888267,2020-09-12 07:24,447.00,-28
1599888327,2020-09-12 07:25,448.00,-28
1599888388,2020-09-12 07:26,455.00,-29
1599888448,2020-09-12 07:27,447.00,-30
1599888508,2020-09-12 07:28,450.00,-28
1599888568,2020-09-12 07:29,448.00,-29
1599888628,2020-09-12 07:30,453.00,-28
1599888688,2020-09-12 07:31,453.00,-29
1599888748,2020-09-12 07:32,444.00,-29
1599888809,2020-09-12 07:33,445.00,-29
1599888869,2020-09-12 07:34,446.00,-28
1599888929,2020-09-12 07:35,447.00,-28
1599888989,2020-09-12 07:36,443.00,-30
1599889049,2020-09-12 07:37,442.00,-29
1599889109,2020-09-12 07:38,443.00,-29
1599889170,2020-09-12 07:39,442.00,-29
1599889230,2020-09-12 07:40,441.00,-29
1599889290,2020-09-12 07:41,437.00,-27
1599889350,2020-09-12 07:42,436.00,-30
1599889410,2020-09-12 07:43,437.00,-30
1599889470,2020-09-12 07:44,437.00,-27
1599889530,2020-09-12 07:45,437.00,-29
1599889591,2020-09-12 07:46,436.00,-31
1599889651,2020-09-12 07:47,437.00,-29
1599889711,2020-09-12 07:48,437.00,-31
1599889771,2020-09-12 07:49,442.00,-27
1599889832,2020-09-12 07:50,443.00,-31
1599889892,2020-09-12 07:51,438.00,-29
1599889952,2020-09-12 07:52,438.00,-29
1599890012,2020-09-12 07:53,443.00,-28
1599890072,2020-09-12 07:54,436.00,-29
1599890133,2020-09-12 07:55,439.00,-30
1599890193,2020-09-12 07:56,439.00,-28
1599890253,2020-09-12 07:57,437.00,-29
1599890313,2020-09-12 07:58,435.00,-28
1599890373,2020-09-12 07:59,435.00,-28
1599890433,2020-09-12 08:00,435.00,-29
1599890494,2020-09-12 08:01,430.00,-28
1599890554,2020-09-12 08:02,433.00,-29
1599890614,2020-09-12 08:03,434.00,-28
1599890674,2020-09-12 08:04,433.00,-30
1599890734,2020-09-12 08:05,431.00,-29
1599890795,2020-09-12 08:06,433.00,-28
1599890855,2020-09-12 08:07,434.00,-32
1599890915,2020-09-12 08:08,435.00,-28
1599890975,2020-09-12 08:09,433.00,-29
1599891036,2020-09-12 08:10,433.00,-29
1599891096,2020-09-12 08:11,431.00,-28
1599891156,2020-09-12 08:12,433.00,-29
1599891216,2020-09-12 08:13,437.00,-28
1599891276,2020-09-12 08:14,437.00,-28
1599891336,2020-09-12 08:15,432.00,-28
1599891396,2020-09-12 08:16,430.00,-28
1599891456,2020-09-12 08:17,431.00,-28
1599891516,2020-09-12 08:18,437.00,-29
1599891577,2020-09-12 08:19,433.00,-28
1599891637,2020-09-12 08:20,433.00,-29
1599891697,2020-09-12 08:21,433.00,-28
1599891757,2020-09-12 08:22,435.00,-30
1599891817,2020-09-12 08:23,432.00,-28
1599891877,2020-09-12 08:24,432.00,-31
1599891937,2020-09-12 08:25,435.00,-28
1599891998,2020-09-12 08:26,429.00,-29
1599892058,2020-09-12 08:27,429.00,-28
1599892118,2020-09-12 08:28,428.00,-30
1599892178,2020-09-12 08:29,430.00,-29
1599892238,2020-09-12 08:30,428.00,-30
1599892298,2020-09-12 08:31,430.00,-30
1599892358,2020-09-12 08:32,431.00,-30
1599892421,2020-09-12 08:33,436.00,-28
1599892481,2020-09-12 08:34,433.00,-30
1599892541,2020-09-12 08:35,431.00,-29
1599892601,2020-09-12 08:36,434.00,-29
1599892662,2020-09-12 08:37,434.00,-30
1599892722,2020-09-12 08:38,432.00,-30
1599892782,2020-09-12 08:39,436.00,-31
1599892842,2020-09-12 08:40,430.00,-31
1599892902,2020-09-12 08:41,431.00,-29
1599892963,2020-09-12 08:42,429.00,-31
1599893026,2020-09-12 08:43,431.00,-30
1599893086,2020-09-12 08:44,429.00,-31
1599893146,2020-09-12 08:45,431.00,-30
1599893207,2020-09-12 08:46,432.00,-31
1599893267,2020-09-12 08:47,433.00,-29
1599893327,2020-09-12 08:48,431.00,-30
1599893388,2020-09-12 08:49,433.00,-31
1599893448,2020-09-12 08:50,432.00,-30
1599893508,2020-09-12 08:51,431.00,-30
1599893568,2020-09-12 08:52,429.00,-30
1599893629,2020-09-12 08:53,428.00,-29
1599893689,2020-09-12 08:54,427.00,-29
1599893749,2020-09-12 08:55,426.00,-32
1599893809,2020-09-12 08:56,430.00,-28
1599893870,2020-09-12 08:57,427.00,-29
1599893930,2020-09-12 08:58,427.00,-29
1599893990,2020-09-12 08:59,425.00,-29
1599894050,2020-09-12 09:00,427.00,-28
1599894111,2020-09-12 09:01,424.00,-30
1599894171,2020-09-12 09:02,422.00,-28
1599894231,2020-09-12 09:03,422.00,-29
1599894291,2020-09-12 09:04,425.00,-30
1599894351,2020-09-12 09:05,421.00,-30
1599894412,2020-09-12 09:06,423.00,-28
1599894472,2020-09-12 09:07,421.00,-30
1599894532,2020-09-12 09:08,420.00,-29
1599894592,2020-09-12 09:09,421.00,-30
1599894652,2020-09-12 09:10,422.00,-29
1599894712,2020-09-12 09:11,421.00,-28
1599894772,2020-09-12 09:12,422.00,-29
1599894833,2020-09-12 09:13,421.00,-30
1599894893,2020-09-12 09:14,420.00,-29
1599894953,2020-09-12 09:15,422.00,-29
1599895013,2020-09-12 09:16,421.00,-30
1599895073,2020-09-12 09:17,425.00,-29
1599895133,2020-09-12 09:18,425.00,-29
1599895193,2020-09-12 09:19,425.00,-31
1599895253,2020-09-12 09:20,426.00,-31
1599895314,2020-09-12 09:21,425.00,-28
1599895374,2020-09-12 09:22,424.00,-29
1599895434,2020-09-12 09:23,426.00,-29
1599895494,2020-09-12 09:24,425.00,-31
1599895554,2020-09-12 09:25,426.00,-28
1599895614,2020-09-12 09:26,425.00,-29
1599895674,2020-09-12 09:27,425.00,-30
1599895734,2020-09-12 09:28,426.00,-29
1599895794,2020-09-12 09:29,424.00,-31
1599895855,2020-09-12 09:30,427.00,-30
1599895915,2020-09-12 09:31,425.00,-28
1599895975,2020-09-12 09:32,427.00,-28
1599896035,2020-09-12 09:33,422.00,-29
1599896095,2020-09-12 09:34,422.00,-30
1599896155,2020-09-12 09:35,423.00,-30
1599896216,2020-09-12 09:36,425.00,-30
1599896276,2020-09-12 09:37,424.00,-29
1599896336,2020-09-12 09:38,420.00,-28
1599896396,2020-09-12 09:39,422.00,-28
1599896456,2020-09-12 09:40,421.00,-29
1599896516,2020-09-12 09:41,424.00,-27
1599896576,2020-09-12 09:42,424.00,-30
1599896636,2020-09-12 09:43,423.00,-31
1599896696,2020-09-12 09:44,421.00,-31
1599896756,2020-09-12 09:45,421.00,-30
1599896816,2020-09-12 09:46,419.00,-30
1599896877,2020-09-12 09:47,424.00,-30
1599896937,2020-09-12 09:48,421.00,-32
1599896997,2020-09-12 09:49,421.00,-30
1599897057,2020-09-12 09:50,420.00,-32
1599897117,2020-09-12 09:51,425.00,-31
1599897178,2020-09-12 09:52,421.00,-31
1599897238,2020-09-12 09:53,421.00,-29
1599897298,2020-09-12 09:54,421.00,-39
1599897358,2020-09-12 09:55,421.00,-35
1599897418,2020-09-12 09:56,420.00,-33
1599897478,2020-09-12 09:57,422.00,-33
1599897538,2020-09-12 09:58,422.00,-28
1599897599,2020-09-12 09:59,418.00,-30
1599897659,2020-09-12 10:00,423.00,-32
1599897719,2020-09-12 10:01,419.00,-29
1599897779,2020-09-12 10:02,419.00,-31
1599897839,2020-09-12 10:03,419.00,-28
1599897899,2020-09-12 10:04,419.00,-29
1599897959,2020-09-12 10:05,418.00,-28
1599898019,2020-09-12 10:06,419.00,-28
1599898079,2020-09-12 10:07,426.00,-28
1599898139,2020-09-12 10:08,423.00,-28
1599898200,2020-09-12 10:10,422.00,-28
1599898260,2020-09-12 10:11,427.00,-29
1599898320,2020-09-12 10:12,425.00,-28
1599898380,2020-09-12 10:13,424.00,-31
1599898440,2020-09-12 10:14,425.00,-31
1599898500,2020-09-12 10:15,426.00,-30
1599898561,2020-09-12 10:16,425.00,-32
1599898621,2020-09-12 10:17,424.00,-31